| time (UTC) | temp C | wind direction | speed KPH | gust KPH | rain 1hr cm | rain 24hr cm | rain mn cm | humidity % | barometer mb |
| 20260506061547 | 8 | 160 | 0.0 | 0.0 | 0.00 | 0.00 | 0.00 | 90 | 1018.3 |
| 20260506044536 | 10 | 163 | 0.0 | 0.0 | 0.00 | 0.00 | 0.00 | 86 | 1017.7 |
| 20260506043031 | 11 | 158 | 0.0 | 1.6 | 0.00 | 0.00 | 0.00 | 87 | 1017.5 |
| 20260506041529 | 10 | 158 | 0.0 | 1.6 | 0.00 | 0.00 | 0.00 | 86 | 1017.4 |
| 20260506040041 | 11 | 158 | 0.0 | 0.0 | 0.00 | 0.00 | 0.00 | 84 | 1017.2 |
| 20260506034526 | 12 | 158 | 0.0 | 1.6 | 0.00 | 0.00 | 0.00 | 84 | 1017.1 |
| 20260506033027 | 12 | 203 | 0.0 | 0.0 | 0.00 | 0.00 | 0.00 | 82 | 1016.7 |
| 20260506031522 | 12 | 203 | 0.0 | 0.0 | 0.00 | 0.00 | 0.00 | 81 | 1016.3 |
| 20260506030022 | 13 | 300 | 0.0 | 3.2 | 0.00 | 0.00 | 0.00 | 80 | 1016.1 |
| 20260506024528 | 13 | 264 | 0.0 | 1.6 | 0.00 | 0.00 | 0.00 | 79 | 1015.9 |
| 20260506023020 | 13 | 330 | 0.0 | 4.8 | 0.00 | 0.00 | 0.00 | 78 | 1016.0 |
| 20260506021538 | 14 | 312 | 0.0 | 8.0 | 0.00 | 0.00 | 0.00 | 76 | 1015.9 |
| 20260506020020 | 15 | 261 | 1.6 | 9.7 | 0.00 | 0.00 | 0.00 | 73 | 1015.8 |
| 20260506014523 | 16 | 309 | 0.0 | 6.4 | 0.00 | 0.00 | 0.00 | 70 | 1015.7 |
| 20260506013018 | 16 | 254 | 0.0 | 4.8 | 0.00 | 0.00 | 0.00 | 69 | 1015.7 |
| 20260506011523 | 15 | 342 | 0.0 | 8.0 | 0.00 | 0.00 | 0.00 | 71 | 1015.7 |
| 20260506010014 | 15 | 284 | 0.0 | 8.0 | 0.00 | 0.00 | 0.00 | 71 | 1015.7 |
| 20260506004512 | 16 | 234 | 1.6 | 6.4 | 0.00 | 0.00 | 0.00 | 70 | 1015.7 |
| 20260506003012 | 16 | 20 | 1.6 | 6.4 | 0.00 | 0.00 | 0.00 | 68 | 1015.6 |
| 20260506001513 | 16 | 194 | 0.0 | 3.2 | 0.00 | 0.00 | 0.00 | 68 | 1015.6 |
| 20260506000008 | 16 | 352 | 0.0 | 4.8 | 0.00 | 0.00 | 0.00 | 68 | 1015.5 |
| 20260505234513 | 16 | 158 | 0.0 | 8.0 | 0.00 | 0.00 | 0.00 | 69 | 1015.5 |
| 20260505233008 | 16 | 34 | 1.6 | 6.4 | 0.00 | 0.00 | 0.00 | 67 | 1015.6 |
| 20260505231508 | 16 | 322 | 0.0 | 6.4 | 0.00 | 0.00 | 0.00 | 67 | 1015.5 |
| 20260505230007 | 16 | 344 | 0.0 | 6.4 | 0.00 | 0.00 | 0.00 | 67 | 1015.4 |
| 20260505224510 | 16 | 304 | 0.0 | 4.8 | 0.00 | 0.00 | 0.00 | 66 | 1015.6 |
| 20260505223007 | 16 | 219 | 0.0 | 4.8 | 0.00 | 0.00 | 0.00 | 68 | 1015.9 |
| 20260505221505 | 15 | 23 | 0.0 | 4.8 | 0.00 | 0.00 | 0.00 | 69 | 1015.9 |
| 20260505220004 | 16 | 350 | 0.0 | 6.4 | 0.00 | 0.00 | 0.00 | 68 | 1015.9 |
| 20260505214502 | 16 | 6 | 1.6 | 9.7 | 0.00 | 0.00 | 0.00 | 68 | 1016.0 |
| 20260505213100 | 16 | 17 | 1.6 | 12.9 | 0.00 | 0.00 | 0.00 | 66 | 1016.1 |
| 20260505211634 | 16 | 19 | 1.6 | 9.7 | 0.00 | 0.00 | 0.00 | 66 | 1016.1 |
| 20260505210057 | 16 | 322 | 3.2 | 9.7 | 0.00 | 0.00 | 0.00 | 66 | 1016.0 |
| 20260505204557 | 16 | 326 | 0.0 | 11.3 | 0.00 | 0.00 | 0.00 | 65 | 1016.1 |
| 20260505203119 | 16 | 334 | 0.0 | 3.2 | 0.00 | 0.00 | 0.00 | 66 | 1016.2 |
| 20260505201552 | 16 | 9 | 0.0 | 8.0 | 0.00 | 0.00 | 0.00 | 65 | 1016.1 |
| 20260505200050 | 16 | 1 | 1.6 | 8.0 | 0.00 | 0.00 | 0.00 | 67 | 1016.1 |
| 20260505194550 | 16 | 341 | 0.0 | 8.0 | 0.00 | 0.00 | 0.00 | 67 | 1016.4 |
| 20260505193149 | 16 | 283 | 0.0 | 3.2 | 0.00 | 0.00 | 0.00 | 68 | 1016.2 |
| 20260505191551 | 15 | 337 | 0.0 | 4.8 | 0.00 | 0.00 | 0.00 | 71 | 1016.3 |
| 20260505190046 | 14 | 161 | 0.0 | 3.2 | 0.00 | 0.00 | 0.00 | 71 | 1016.4 |
| 20260505184550 | 13 | 251 | 0.0 | 4.8 | 0.00 | 0.00 | 0.00 | 74 | 1016.3 |
| 20260505183048 | 13 | 262 | 0.0 | 3.2 | 0.00 | 0.00 | 0.00 | 73 | 1016.5 |
| 20260505181543 | 13 | 303 | 0.0 | 6.4 | 0.00 | 0.00 | 0.00 | 74 | 1016.3 |
| 20260505180045 | 13 | 292 | 0.0 | 4.8 | 0.00 | 0.00 | 0.00 | 72 | 1016.2 |
| 20260505174537 | 14 | 328 | 0.0 | 6.4 | 0.00 | 0.00 | 0.00 | 69 | 1015.9 |
| 20260505173036 | 15 | 133 | 0.0 | 6.4 | 0.00 | 0.00 | 0.00 | 67 | 1015.6 |
| 20260505171534 | 15 | 223 | 1.6 | 6.4 | 0.00 | 0.00 | 0.00 | 67 | 1015.6 |
| 20260505170036 | 14 | 333 | 0.0 | 3.2 | 0.00 | 0.00 | 0.00 | 69 | 1015.7 |
| 20260505164528 | 14 | 58 | 0.0 | 3.2 | 0.00 | 0.00 | 0.00 | 70 | 1015.6 |
| 20260505163028 | 13 | 335 | 0.0 | 6.4 | 0.00 | 0.00 | 0.00 | 69 | 1015.7 |
| 20260505161520 | 13 | 11 | 0.0 | 4.8 | 0.00 | 0.00 | 0.00 | 73 | 1015.4 |
| 20260505153012 | 12 | 316 | 0.0 | 1.6 | 0.00 | 0.00 | 0.00 | 74 | 1015.6 |
| 20260505151509 | 11 | 342 | 0.0 | 3.2 | 0.00 | 0.00 | 0.00 | 75 | 1015.3 |
| 20260505124600 | 11 | 355 | 0.0 | 3.2 | 0.00 | 0.00 | 0.00 | 82 | 1014.7 |
| 20260505123055 | 11 | 231 | 0.0 | 1.6 | 0.00 | 0.00 | 0.00 | 81 | 1014.6 |
| 20260505121553 | 11 | 308 | 0.0 | 4.8 | 0.00 | 0.00 | 0.00 | 82 | 1014.7 |
| 20260505120106 | 11 | 84 | 0.0 | 3.2 | 0.00 | 0.00 | 0.00 | 83 | 1014.8 |
| 20260505114554 | 11 | 311 | 0.0 | 0.0 | 0.00 | 0.00 | 0.00 | 83 | 1014.5 |
| 20260505113052 | 11 | 311 | 0.0 | 0.0 | 0.00 | 0.00 | 0.00 | 83 | 1014.5 |
| 20260505111548 | 11 | 311 | 0.0 | 0.0 | 0.00 | 0.00 | 0.00 | 82 | 1014.6 |
| 20260505101543 | 11 | 332 | 0.0 | 0.0 | 0.00 | 0.00 | 0.00 | 82 | 1014.7 |
| 20260505100039 | 11 | 332 | 0.0 | 1.6 | 0.00 | 0.00 | 0.00 | 82 | 1014.7 |
| 20260505094537 | 11 | 354 | 0.0 | 0.0 | 0.00 | 0.00 | 0.00 | 82 | 1014.8 |
| 20260505093046 | 11 | 6 | 0.0 | 1.6 | 0.00 | 0.00 | 0.00 | 81 | 1014.9 |
| 20260505091535 | 11 | 349 | 0.0 | 0.0 | 0.00 | 0.00 | 0.00 | 81 | 1015.0 |
| 20260505090034 | 11 | 349 | 0.0 | 0.0 | 0.00 | 0.00 | 0.00 | 80 | 1014.9 |
| 20260505084535 | 11 | 349 | 0.0 | 0.0 | 0.00 | 0.00 | 0.00 | 80 | 1014.9 |
| 20260505083031 | 11 | 349 | 0.0 | 0.0 | 0.00 | 0.00 | 0.00 | 80 | 1015.0 |
| 20260505081529 | 11 | 349 | 0.0 | 0.0 | 0.00 | 0.00 | 0.00 | 79 | 1015.1 |
| 20260505080031 | 11 | 350 | 0.0 | 0.0 | 0.00 | 0.00 | 0.00 | 79 | 1015.2 |
| 20260505074525 | 11 | 350 | 0.0 | 0.0 | 0.00 | 0.00 | 0.00 | 78 | 1015.2 |
| 20260505073023 | 11 | 349 | 0.0 | 0.0 | 0.00 | 0.00 | 0.00 | 78 | 1015.1 |
| 20260505071520 | 11 | 347 | 0.0 | 1.6 | 0.00 | 0.00 | 0.00 | 76 | 1015.2 |
| 20260505070023 | 11 | 347 | 0.0 | 0.0 | 0.00 | 0.00 | 0.00 | 75 | 1015.2 |
| 20260505064517 | 11 | 342 | 0.0 | 1.6 | 0.00 | 0.00 | 0.00 | 75 | 1015.2 |
| 20260505063016 | 11 | 321 | 0.0 | 0.0 | 0.00 | 0.00 | 0.00 | 74 | 1015.2 |